Weather History for Deelen, Netherlands

Change the Weather History Date:

Wednesday, November 27, 2013

  Actual Average Record
Temperature  
Mean Temperature 38 °F -  
Max Temperature 44 °F 42 °F 57 °F (2006)
Min Temperature 32 °F 33 °F 26 °F (2005)
Degree Days  
Heating Degree Days 27    
Moisture  
Dew Point 39 °F    
Average Humidity 97    
Maximum Humidity 100    
Minimum Humidity 87    
Precipitation  
Precipitation 0.00 in - - ()
Sea Level Pressure  
Sea Level Pressure 30.47 in    
Wind  
Wind Speed 4 mph ()    
Max Wind Speed 12 mph    
Max Gust Speed -    
Visibility 3.3 miles    
Events Fog    
Averages and records for this station are not official NWS values.
T = Trace of Precipitation, MM = Missing Value Source: Averaged Metar Reports

Daily Weather History Graph

Daily Weather History Graph

Search for Another Location

Airport:

Trip Planner

Search our weather history database for the weather conditions in past years. The results will help you decide how hot, cold, wet, or windy it might be!

Date:

Astronomy

Nov. 27, 2013 Rise Set
Actual Time 8:16 AM CET 4:31 PM CET
Civil Twilight 7:37 AM CET 5:10 PM CET
Nautical Twilight 6:54 AM CET 5:53 PM CET
Astronomical Twilight 6:14 AM CET 6:33 PM CET
Moon 1:19 AM CET (11/27) 1:39 PM CET (11/27)
Length of Visible Light 9h 33m
Length of Day
8h 14m
Waning Crescent, 34% of the Moon is Illuminated
Nov 27
Waning Crescent
Dec 3
New
Dec 9
First Quarter
Dec 17
Full
Dec 25
Last Quarter

Hourly Weather History & Observations

Time (CET) Temp. Windchill Dew Point Humidity Pressure Visibility Wind Dir Wind Speed Gust Speed Precip Events Conditions
12:25 AM 35.6 °F - 35.6 °F 100% 30.51 in 0.2 mi South 1.2 mph - N/A Fog Fog
12:55 AM 35.6 °F - 35.6 °F 100% 30.51 in 0.2 mi South 1.2 mph - N/A Fog Fog
1:25 AM 33.8 °F - 33.8 °F 100% 30.51 in - WNW 1.2 mph - N/A Fog Fog
1:55 AM 33.8 °F - 33.8 °F 100% 30.51 in - WNW 1.2 mph - N/A Fog Fog
2:25 AM 33.8 °F - 33.8 °F 100% 30.48 in - SE 2.3 mph - N/A Fog Fog
2:55 AM 32.0 °F - 32.0 °F 100% 30.51 in 0.7 mi Calm Calm - N/A   Overcast
3:25 AM 32.0 °F - 32.0 °F 100% 30.48 in 0.6 mi East 2.3 mph - N/A Fog Fog
3:55 AM 32.0 °F - 32.0 °F 100% 30.48 in 0.6 mi ESE 2.3 mph - N/A Fog Fog
4:25 AM 32.0 °F - 32.0 °F 100% 30.48 in 0.4 mi Calm Calm - N/A Fog Light Freezing Fog
4:55 AM 32.0 °F - 30.2 °F 93% 30.48 in 1.4 mi South 1.2 mph - N/A   Partly Cloudy
5:25 AM 32.0 °F 28.7 °F 32.0 °F 100% 30.48 in 5.6 mi ESE 3.5 mph - N/A   Scattered Clouds
5:55 AM 32.0 °F 28.7 °F 32.0 °F 100% 30.48 in 5.6 mi ESE 3.5 mph - N/A   Overcast
6:25 AM 33.8 °F - 33.8 °F 100% 30.48 in 5.6 mi SE 2.3 mph - N/A   Mostly Cloudy
6:55 AM 35.6 °F - 35.6 °F 100% 30.48 in 6.2 mi Calm Calm - N/A   Overcast
7:25 AM 35.6 °F 32.8 °F 35.6 °F 100% 30.48 in 3.1 mi SSE 3.5 mph - N/A   Overcast
7:55 AM 37.4 °F - 37.4 °F 100% 30.48 in 3.7 mi SE 2.3 mph - N/A   Overcast
8:25 AM 37.4 °F - 37.4 °F 100% 30.48 in - SSE 2.3 mph - N/A   Overcast
8:55 AM 37.4 °F - 37.4 °F 100% 30.48 in 3.7 mi South 2.3 mph - N/A   Drizzle
9:25 AM 37.4 °F 32.8 °F 37.4 °F 100% 30.48 in 3.7 mi SSW 5.8 mph - N/A   Drizzle
9:55 AM 39.2 °F 35.0 °F 39.2 °F 100% 30.48 in 5.0 mi SW 5.8 mph - N/A   Light Drizzle
10:25 AM 41.0 °F 36.4 °F 39.2 °F 93% 30.48 in 5.0 mi SSW 6.9 mph - N/A   Overcast
10:55 AM 41.0 °F 37.1 °F 39.2 °F 93% 30.48 in 5.6 mi SSW 5.8 mph - N/A   Overcast
11:25 AM 41.0 °F 38.0 °F 41.0 °F 100% 30.48 in 4.3 mi SSW 4.6 mph - N/A   Mostly Cloudy
11:55 AM 42.8 °F 38.6 °F 41.0 °F 93% 30.48 in 4.3 mi SSW 6.9 mph - N/A   Mostly Cloudy
11:58 AM 42.8 °F 38.6 °F 41.0 °F 93% 30.48 in 4.3 mi SSW 6.9 mph - N/A   Mostly Cloudy
12:25 PM 42.8 °F 37.5 °F 41.0 °F 93% 30.48 in 3.7 mi SSW 9.2 mph - N/A   Mostly Cloudy
12:55 PM 42.8 °F 38.6 °F 42.8 °F 100% 30.48 in 3.1 mi SW 6.9 mph - N/A   Mostly Cloudy
1:25 PM 44.6 °F 40.2 °F 42.8 °F 93% 30.48 in 4.3 mi SW 8.1 mph - N/A   Mostly Cloudy
1:55 PM 44.6 °F 39.7 °F 42.8 °F 93% 30.45 in 5.6 mi SW 9.2 mph - N/A   Overcast
2:25 PM 44.6 °F 40.7 °F 42.8 °F 93% 30.45 in 5.6 mi SW 6.9 mph - N/A   Overcast
2:55 PM 44.6 °F 40.7 °F 42.8 °F 93% 30.45 in 6.2 mi SW 6.9 mph - N/A   Overcast
3:25 PM 44.6 °F 40.2 °F 42.8 °F 93% 30.45 in 6.2 mi SW 8.1 mph - N/A   Overcast
3:55 PM 44.6 °F 39.7 °F 41.0 °F 87% 30.45 in 6.2 mi WSW 9.2 mph - N/A   Overcast
3:58 PM 44.6 °F 40.7 °F 41.0 °F 87% 30.45 in 6.2 mi WSW 6.9 mph - N/A   Overcast
4:25 PM 44.6 °F 40.2 °F 41.0 °F 87% 30.45 in 6.2 mi WSW 8.1 mph - N/A   Overcast
4:55 PM 44.6 °F 39.2 °F 41.0 °F 87% 30.45 in 6.2 mi WSW 10.4 mph - N/A   Overcast
5:25 PM 44.6 °F 38.8 °F 41.0 °F 87% 30.45 in 6.2 mi WSW 11.5 mph - N/A   Overcast
5:55 PM 42.8 °F 38.6 °F 41.0 °F 93% 30.45 in 3.7 mi WSW 6.9 mph - N/A   Overcast
6:25 PM 42.8 °F 38.0 °F 41.0 °F 93% 30.45 in - WSW 8.1 mph - N/A   Overcast
6:55 PM 42.8 °F 37.5 °F 42.8 °F 100% 30.45 in 1.6 mi SW 9.2 mph - N/A   Overcast
7:25 PM 42.8 °F 38.0 °F 42.8 °F 100% 30.45 in 1.2 mi SW 8.1 mph - N/A   Overcast
7:55 PM 42.8 °F 37.5 °F 42.8 °F 100% 30.45 in 1.2 mi SW 9.2 mph - N/A   Overcast
8:25 PM 42.8 °F 38.0 °F 42.8 °F 100% 30.45 in 1.1 mi WSW 8.1 mph - N/A   Overcast
8:55 PM 42.8 °F 37.5 °F 42.8 °F 100% 30.45 in 0.9 mi WSW 9.2 mph - N/A   Overcast
9:25 PM 42.8 °F 38.6 °F 42.8 °F 100% 30.48 in 0.9 mi WSW 6.9 mph - N/A   Overcast
9:55 PM 44.6 °F 41.4 °F 42.8 °F 93% 30.48 in 0.7 mi WSW 5.8 mph - N/A   Overcast
10:25 PM 44.6 °F 40.7 °F 42.8 °F 93% 30.48 in 0.7 mi WSW 6.9 mph - N/A   Heavy Drizzle
10:55 PM 44.6 °F 40.7 °F 44.6 °F 100% 30.48 in 0.9 mi WSW 6.9 mph - N/A   Overcast
11:25 PM 44.6 °F 40.7 °F 44.6 °F 100% 30.48 in 0.8 mi WSW 6.9 mph - N/A   Overcast
11:55 PM 44.6 °F 40.7 °F 44.6 °F 100% 30.48 in 0.7 mi WSW 6.9 mph - N/A   Overcast